HB9TJR-3 Weather Reports


Display with metric or nautical units.
time (UTC)temp
F
wind
direction
speed
MPH
gust
MPH
rain 1hr
in
rain 24hr
in
rain mn
in
humidity
%
barometer
mb
20260505124734 48 0 0.0 0.0 0.00 0.00 0.00 92 859.9
20260505123134 48 0 0.0 0.0 0.00 0.00 0.00 90 859.8
20260505121533 47 0 0.0 0.0 0.00 0.00 0.00 91 859.9
20260505115934 46 0 0.0 0.0 0.00 0.00 0.00 92 860.1
20260505114335 47 0 0.0 0.0 0.00 0.00 0.00 93 860.2
20260505112734 46 0 0.0 0.0 0.00 0.00 0.00 97 860.1
20260505111134 47 0 0.0 0.0 0.00 0.00 0.00 97 860.1
20260505100734 47 0 0.0 0.0 0.00 0.00 0.00 90 859.9
20260505095134 47 0 0.0 0.0 0.00 0.00 0.00 89 859.9
20260505093534 47 0 0.0 0.0 0.00 0.00 0.00 89 859.8
20260505091934 47 0 0.0 0.0 0.00 0.00 0.00 88 859.7
20260505090334 47 0 0.0 0.0 0.00 0.00 0.00 89 859.7
20260505084734 47 0 0.0 0.0 0.00 0.00 0.00 89 859.6
20260505083134 46 0 0.0 0.0 0.00 0.00 0.00 89 859.8
20260505081534 46 0 0.0 0.0 0.00 0.00 0.00 89 859.7
20260505075934 46 0 0.0 0.0 0.00 0.00 0.00 89 859.7
20260505072735 46 0 0.0 0.0 0.00 0.00 0.00 89 859.7
20260505071134 45 0 0.0 0.0 0.00 0.00 0.00 90 859.7
20260505065534 45 0 0.0 0.0 0.00 0.00 0.00 92 859.8
20260505063934 45 0 0.0 0.0 0.00 0.00 0.00 92 859.9
20260505062334 45 0 0.0 0.0 0.00 0.00 0.00 93 860.0
20260505060734 45 0 0.0 0.0 0.00 0.00 0.00 92 860.2
20260505055133 45 0 0.0 0.0 0.00 0.00 0.00 91 860.5
20260505053534 45 0 0.0 0.0 0.00 0.00 0.00 93 860.4
20260505051934 45 0 0.0 0.0 0.00 0.00 0.00 95 860.6
20260505050334 45 0 0.0 0.0 0.00 0.00 0.00 95 860.6
20260505041534 46 0 0.0 0.0 0.00 0.00 0.00 91 860.7
20260505035934 47 0 0.0 0.0 0.00 0.00 0.00 90 860.6
20260505034334 47 0 0.0 0.0 0.00 0.00 0.00 90 860.7
20260505032734 48 0 0.0 0.0 0.00 0.00 0.00 89 860.9
20260505031135 48 0 0.0 0.0 0.00 0.00 0.00 87 860.9
20260505025534 48 0 0.0 0.0 0.00 0.00 0.00 87 860.9
20260505023934 48 0 0.0 0.0 0.00 0.00 0.00 87 861.0
20260505022334 47 0 0.0 0.0 0.00 0.00 0.00 88 861.2
20260505020734 48 0 0.0 0.0 0.00 0.00 0.00 87 861.4
20260505015134 49 0 0.0 0.0 0.00 0.00 0.00 86 861.5
20260505013535 49 0 0.0 0.0 0.00 0.00 0.00 86 861.6
20260505011934 49 0 0.0 0.0 0.00 0.00 0.00 86 861.6
20260505010334 48 0 0.0 0.0 0.00 0.00 0.00 85 861.6
20260505004734 49 0 0.0 0.0 0.00 0.00 0.00 84 861.6
20260505003134 48 0 0.0 0.0 0.00 0.00 0.00 84 861.6
20260505001535 49 0 0.0 0.0 0.00 0.00 0.00 84 861.9
20260504235934 49 0 0.0 0.0 0.00 0.00 0.00 84 862.0
20260504232734 48 0 0.0 0.0 0.00 0.00 0.00 84 862.1
20260504231134 48 0 0.0 0.0 0.00 0.00 0.00 84 862.1
20260504225534 49 0 0.0 0.0 0.00 0.00 0.00 82 862.2
20260504223934 48 0 0.0 0.0 0.00 0.00 0.00 83 862.2
20260504222333 48 0 0.0 0.0 0.00 0.00 0.00 85 862.4
20260504220734 48 0 0.0 0.0 0.00 0.00 0.00 85 862.6
20260504215134 47 0 0.0 0.0 0.00 0.00 0.00 87 862.8
20260504213534 47 0 0.0 0.0 0.00 0.00 0.00 85 862.7
20260504211934 47 0 0.0 0.0 0.00 0.00 0.00 86 862.7
20260504210334 47 0 0.0 0.0 0.00 0.00 0.00 86 862.9
20260504204734 47 0 0.0 0.0 0.00 0.00 0.00 86 863.0
20260504203134 48 0 0.0 0.0 0.00 0.00 0.00 84 862.9
20260504201534 48 0 0.0 0.0 0.00 0.00 0.00 85 863.1
20260504195934 47 0 0.0 0.0 0.00 0.00 0.00 86 863.2
20260504194335 48 0 0.0 0.0 0.00 0.00 0.00 86 863.3
20260504192734 47 0 0.0 0.0 0.00 0.00 0.00 87 863.3
20260504191134 47 0 0.0 0.0 0.00 0.00 0.00 87 863.3
20260504185534 47 0 0.0 0.0 0.00 0.00 0.00 88 863.3
20260504183934 47 0 0.0 0.0 0.00 0.00 0.00 88 863.4
20260504182334 47 0 0.0 0.0 0.00 0.00 0.00 89 863.4
20260504180734 47 0 0.0 0.0 0.00 0.00 0.00 89 863.5
20260504175134 47 0 0.0 0.0 0.00 0.00 0.00 89 863.6
20260504173534 47 0 0.0 0.0 0.00 0.00 0.00 90 863.6
20260504171934 47 0 0.0 0.0 0.00 0.00 0.00 90 863.7
20260504170334 47 0 0.0 0.0 0.00 0.00 0.00 90 863.8
20260504151134 46 0 0.0 0.0 0.00 0.00 0.00 88 864.7